Weather History for Nuiqsut, AK

Change the Weather History Date:

Saturday, February 2, 2013

  Actual Average (PAKU) Record (PAKU)
Temperature  
Mean Temperature -20 °F -  
Max Temperature -14 °F -12 °F 23 °F (2014)
Min Temperature -27 °F -21 °F -50 °F (1984)
Degree Days  
Heating Degree Days 86    
Moisture  
Dew Point -23 °F    
Average Humidity 81    
Maximum Humidity 84    
Minimum Humidity 76    
Precipitation  
Precipitation 0.00 in - - ()
Sea Level Pressure  
Sea Level Pressure 30.10 in    
Wind  
Wind Speed 17 mph (NE)    
Max Wind Speed 22 mph    
Max Gust Speed -    
Visibility 2 miles    
Events      
Averages and records for this station are not official NWS values.
T = Trace of Precipitation, MM = Missing Value Source: NWS Daily Summary

Daily Weather History Graph

Daily Weather History Graph

Search for Another Location

Airport:

Trip Planner

Search our weather history database for the weather conditions in past years. The results will help you decide how hot, cold, wet, or windy it might be!

Date:

Astronomy

Feb. 02, 2013 Rise Set
Actual Time 10:43 AM AKST 3:52 PM AKST
Civil Twilight 9:19 AM AKST 5:17 PM AKST
Nautical Twilight 8:01 AM AKST 6:35 PM AKST
Astronomical Twilight 6:49 AM AKST 7:47 PM AKST
Moon 2:47 AM AKST (2/2) 9:13 AM AKST (2/2)
Length of Visible Light 7h 57m
Length of Day
5h 08m
Waning Gibbous, 58% of the Moon is Illuminated
Feb 2
Waning Gibbous
Feb 3
Last Quarter
Feb 9
New
Feb 17
First Quarter
Feb 25
Full

Hourly Weather History & Observations

Time (AKST) Temp. Windchill Dew Point Humidity Pressure Visibility Wind Dir Wind Speed Gust Speed Precip Events Conditions
12:53 AM -27.0 °F -54.9 °F -31.0 °F 81% 30.41 in 7.0 mi NE 16.1 mph - N/A   Unknown
1:53 AM -26.0 °F -52.6 °F -31.0 °F 77% 30.39 in 7.0 mi NE 15.0 mph - N/A   Clear
3:53 AM -25.1 °F -49.6 °F -29.0 °F 82% 30.34 in 3.0 mi NE 12.7 mph - N/A   Clear
4:53 AM -24.0 °F -50.9 °F -29.0 °F 77% 30.30 in 5.0 mi NE 16.1 mph - N/A   Haze
5:53 AM -24.0 °F -54.5 °F -27.9 °F 82% 30.27 in 3.0 mi NE 21.9 mph - N/A   Clear
6:02 AM -23.8 °F -53.6 °F -27.4 °F 83% 30.26 in 2.5 mi NE 20.7 mph - N/A   Haze
6:15 AM -23.8 °F -52.9 °F -27.4 °F 83% 30.26 in 3.0 mi NE 19.6 mph - N/A   Haze
6:31 AM -23.8 °F -52.9 °F -27.4 °F 83% 30.25 in 2.5 mi NE 19.6 mph - N/A   Haze
6:53 AM -23.1 °F -51.3 °F -27.0 °F 82% 30.25 in 2.5 mi NE 18.4 mph - N/A   Clear
7:03 AM -22.0 °F -48.4 °F -27.4 °F 76% 30.24 in 2.0 mi NE 16.1 mph - N/A   Haze
7:17 AM -22.0 °F -48.4 °F -27.4 °F 76% 30.24 in 2.0 mi NE 16.1 mph - N/A   Haze
7:53 AM -20.9 °F -47.7 °F -26.0 °F 77% 30.22 in 2.0 mi NE 17.3 mph - N/A   Haze
8:00 AM -20.2 °F -48.9 °F -25.6 °F 76% 30.21 in 1.8 mi NE 20.7 mph - N/A   Haze
8:53 AM -20.9 °F -48.5 °F -25.1 °F 81% 30.19 in 1.8 mi NE 18.4 mph - N/A   Overcast
9:18 AM -20.2 °F -46.8 °F -25.6 °F 76% 30.18 in 2.0 mi NE 17.3 mph - N/A   Haze
9:51 AM -20.2 °F -46.0 °F -23.8 °F 83% 30.17 in 1.8 mi NE 16.1 mph - N/A   Overcast
9:53 AM -20.0 °F -45.8 °F -24.0 °F 82% 30.17 in 1.8 mi NE 16.1 mph - N/A   Overcast
10:53 AM -20.0 °F - -24.0 °F 82% 30.15 in 1.2 mi North - - N/A   Overcast
11:53 AM -18.9 °F - -23.1 °F 81% 30.14 in 1.5 mi North - - N/A   Overcast
12:25 PM -18.4 °F - -23.8 °F 76% 30.12 in 2.0 mi North - - N/A   Overcast
12:38 PM -18.4 °F - -23.8 °F 76% 30.11 in 1.8 mi North - - N/A   Overcast
12:53 PM -18.9 °F - -23.1 °F 81% 30.12 in 1.8 mi North - - N/A   Overcast
1:53 PM -18.0 °F - -22.0 °F 82% 30.09 in 0.8 mi North - - N/A   Overcast
2:13 PM -18.4 °F - -22.0 °F 84% 30.07 in 0.8 mi North - - N/A   Mist
2:42 PM -18.4 °F - -22.0 °F 84% 30.07 in 0.8 mi North - - N/A   Mist
3:03 PM -18.4 °F - -22.0 °F 84% 30.05 in 0.8 mi North - - N/A   Mist
3:21 PM -18.4 °F - -22.0 °F 84% 30.04 in 0.8 mi North - - N/A   Mist
3:40 PM -18.4 °F - -22.0 °F 84% 30.03 in 0.8 mi North - - N/A   Mist
3:53 PM -18.0 °F - -22.0 °F 82% 30.04 in 0.8 mi North - - N/A   Mist
4:12 PM -16.6 °F - -22.0 °F 76% 30.02 in 1.0 mi North - - N/A   Haze
4:53 PM -17.0 °F - -20.9 °F 82% 30.02 in 1.2 mi North - - N/A   Overcast
5:29 PM -16.6 °F - -20.2 °F 84% 30.01 in 2.0 mi North - - N/A   Overcast
5:43 PM -16.6 °F - -20.2 °F 84% 30.02 in 1.8 mi North - - N/A   Overcast
5:51 PM -16.6 °F - -20.2 °F 84% 30.01 in 2.0 mi North - - N/A   Haze
5:53 PM -16.1 °F - -20.9 °F 79% 30.02 in 2.0 mi North - - N/A   Haze
6:04 PM -16.6 °F - -20.2 °F 84% 30.01 in 1.5 mi North - - N/A   Overcast
6:26 PM -16.6 °F - -20.2 °F 84% 30.00 in 2.0 mi North - - N/A   Overcast
6:39 PM -16.6 °F - -20.2 °F 84% 29.99 in 1.8 mi North - - N/A   Overcast
6:53 PM -16.1 °F - -20.0 °F 82% 29.98 in 1.8 mi North - - N/A   Overcast
7:53 PM -15.0 °F - -18.9 °F 82% 29.95 in 1.0 mi North - - N/A   Mist
8:53 PM -15.0 °F - -18.9 °F 82% 29.94 in 1.8 mi North - - N/A   Overcast
9:03 PM -14.8 °F - -18.4 °F 84% 29.94 in 2.0 mi North - - N/A   Haze
9:11 PM -14.8 °F - -18.4 °F 84% 29.94 in 1.5 mi North - - N/A   Overcast
9:37 PM -14.8 °F - -18.4 °F 84% 29.93 in 2.0 mi North - - N/A   Haze
9:53 PM -14.1 °F - -18.0 °F 82% 29.95 in 2.0 mi North - - N/A   Overcast
10:51 PM -14.8 °F - -18.4 °F 84% 29.95 in 2.5 mi North - - N/A   Overcast
10:53 PM -14.1 °F - -18.0 °F 82% 29.96 in 2.5 mi North - - N/A   Overcast
11:16 PM -14.8 °F -34.6 °F -18.4 °F 84% 29.95 in 2.5 mi ENE 10.4 mph - N/A   Overcast
11:25 PM -14.8 °F -36.6 °F -18.4 °F 84% 29.95 in 3.0 mi ENE 12.7 mph - N/A   Overcast
11:53 PM -15.0 °F -35.9 °F -18.9 °F 82% 29.95 in 3.0 mi ENE 11.5 mph - N/A   Overcast